H-2A DEB, 28237

Orbit data source: Space-Track

H-2A DEB, 28237 is space debris in HEO originally from a launch on Mon, 04 Feb 2002 UTC launched from the Tanegashima Space Center (TNSTA). Debris objects in space refer to the collection of defunct objects orbiting the Earth. Examples of debris include non-operational satellites, rocket bodies, and fragments generated from explosions, collisions, or faulty payload assembly.

Loading next visibility...
Identifier
28237, 2002-003D
Orbit
HEO
Country
Flag of JPJP / JPN
Related business
Manufacturer
MHI Tobishima
Mission
Spacecraft
Bus & Motor
Unknown
Mass
~200 kg wet, ~200 kg dry
Launch date (UTC)
2002-02-04 (24 years ago)
Launch vehicle
Unknown
Launch site
Tanegashima Space Center (TNSTA)
Object type
Payload
Rocket body
Debris
Shape & HBR
Half Cyl, 2.0 m
Radar Cross Section
13.425 m², Large (>1 m²)

Expand to show TLE details & history
Last TLE update: 5 days ago

TLE from 5 days ago
0 H-2A DEB
1 28237U 02003D   25256.94397242  .00004522  00000-0  81824-2 0  9995
2 28237  28.6736 284.0295 7082727 256.4669  21.8866  2.46194111202988
Epoch: 2025-09-13T22:39Z
TLE epoch observation values (Epoch: 2025-09-13T22:39:19.217Z)
Latitude
-0.0001°
Longitude
-48.96253°
Altitude
7,457.228 km
Speed
6.357 km/s
True Right ascension
18h 56m 09s
True Declination
0° 00' 00"
Sunlit
Object was in daylight at epoch
Visualization orbit readout
Latitude
Unknown
Longitude
Unknown
Altitude
Unknown
Speed
Unknown
Apparent Right ascension
Unknown
Apparent Declination
Unknown
Sunlit
N/A
Visualization observer readout
Local Sidereal Time
07:18:24
Azimuth
Unknown
Elevation
Unknown
Doppler factor
Unknown
Orbital elements
Apogee altitude
33,204.724 km
Perigee altitude
381.557 km
Semi-major axis
23,171.278 km
Eccentricity
0.70827
Inclination
28.6736°
RAAN
284.0295°
Arg. of periapsis
256.4669°
True anomaly
103.3687°
Mean anomaly
21.8866°
Eccentric anomaly
55.21626°
Mean motion
0.61534 °/min
Orbital period
585.04 mins
BSTAR
0.0081824
Loading maneuver chart data...
Computing Atmospheric mass density...
Loading historical data...
Loading historical data...
Loading historical data...
Loading historical data...
Loading historical data...
Loading historical data...
Loading historical data...
Other satellites on launch #3 in the year 2002 (2002-02-04 UTC)

Documentation

Showing up to 5 results
|